Terminal Aerodrome Forecast
Issued by NWS

Home | Current Version | Previous Version | Text Only | Print | Product List | Glossary On
Versions: 1 2 3 4 5 6 7 8 9 10 11 12 13 14 15 16 17 18 19 20 21
000
FTUS43 KIND 031400 AAA
TAFHUF
TAF AMD
KHUF 031421Z 0314/0412 05004KT P6SM BKN025
     FM031900 04007KT P6SM BKN035
     FM040300 03005KT P6SM SCT060 SCT250
      TEMPO 0409/0412 3SM BR=

USA.gov is the U.S. government's official web portal to all federal, state and local government web resources and services.